When you browse on this site, cookies collect data to enhance your experience and personalize the content and advertising you see.
Visit our Privacy Policy to learn more. By continuing to use the site, you agree to this use of cookies and data.
  • In Hungary
  • List of Countries
  • For 7 days
  • Water Temperature
  • Weather Map
  • News
  • Weather Widgets
  • user-avatar
    Login

    Hourly Weather Stepanovka

    Today, 16 February, Sunday

    Time Temperature Precipitation Wind Pressure Humidity
    00:00 -5°C° 0 mm 2 mps 755 mmHg 95%
    01:00 -4°C° 0 mm 2 mps 755 mmHg 95%
    02:00 -4°C° 0 mm 2 mps 755 mmHg 95%
    03:00 -4°C° 0 mm 2 mps 755 mmHg 96%
    04:00 -4°C° 0 mm 2 mps 755 mmHg 96%
    05:00 -6°C° 0 mm 3 mps 755 mmHg 96%
    06:00 -6°C° 0 mm 3 mps 755 mmHg 95%
    07:00 -7°C° 0 mm 3 mps 755 mmHg 96%
    08:00 -8°C° 0 mm 4 mps 755 mmHg 96%
    09:00 -9°C° 0 mm 4 mps 755 mmHg 94%
    10:00 -8°C° 0 mm 4 mps 755 mmHg 95%
    11:00 -7°C° 0 mm 5 mps 755 mmHg 96%
    12:00 -6°C° 0 mm 5 mps 755 mmHg 97%
    13:00 -5°C° 0 mm 5 mps 755 mmHg 95%
    14:00 -5°C° 0 mm 5 mps 754 mmHg 93%
    15:00 -4°C° 0 mm 5 mps 754 mmHg 91%
    16:00 -4°C° 0 mm 5 mps 754 mmHg 91%
    17:00 -4°C° 0 mm 5 mps 754 mmHg 90%
    18:00 -4°C° 0 mm 5 mps 753 mmHg 90%
    19:00 -2°C° 0 mm 5 mps 753 mmHg 90%
    20:00 -3°C° 0 mm 6 mps 753 mmHg 90%
    21:00 -3°C° 0 mm 6 mps 752 mmHg 90%
    22:00 -3°C° 0 mm 7 mps 752 mmHg 90%
    23:00 -2°C° 0 mm 7 mps 751 mmHg 89%

    Tomorrow, 17 February, Monday

    Time Temperature Precipitation Wind Pressure Humidity
    00:00 -2°C° 0 mm 8 mps 751 mmHg 88%
    01:00 -2°C° 0 mm 8 mps 751 mmHg 89%
    02:00 -2°C° 0 mm 8 mps 750 mmHg 89%
    03:00 -2°C° 0 mm 8 mps 750 mmHg 90%
    04:00 -2°C° 0 mm 8 mps 749 mmHg 89%
    05:00 -3°C° 0 mm 9 mps 748 mmHg 87%
    06:00 -4°C° 0 mm 9 mps 748 mmHg 86%
    07:00 -4°C° 0 mm 9 mps 747 mmHg 85%
    08:00 -4°C° 0 mm 9 mps 747 mmHg 84%
    09:00 -4°C° 0 mm 10 mps 747 mmHg 83%
    10:00 -3°C° 0 mm 10 mps 746 mmHg 82%
    11:00 -3°C° 0 mm 10 mps 746 mmHg 81%
    12:00 -3°C° 0 mm 10 mps 745 mmHg 81%
    13:00 -3°C° 0 mm 10 mps 745 mmHg 81%
    14:00 -3°C° 0 mm 10 mps 745 mmHg 81%
    15:00 -2°C° 0 mm 10 mps 745 mmHg 81%
    16:00 -2°C° 0 mm 10 mps 744 mmHg 81%
    17:00 -2°C° 0 mm 10 mps 744 mmHg 81%
    18:00 -2°C° 0 mm 10 mps 744 mmHg 81%
    19:00 -1°C° 0 mm 9 mps 744 mmHg 81%
    20:00 -1°C° 0 mm 9 mps 745 mmHg 82%
    21:00 -1°C° 0 mm 9 mps 745 mmHg 82%
    22:00 -1°C° 0 mm 8 mps 745 mmHg 85%
    23:00 -1°C° 0 mm 8 mps 745 mmHg 87%

    Day after tomorrow, 18 February, Tuesday

    Time Temperature Precipitation Wind Pressure Humidity
    00:00 -1°C° 0 mm 7 mps 745 mmHg 90%
    01:00 -1°C° 0.3 mm 7 mps 745 mmHg 92%
    02:00 -2°C° 0.3 mm 6 mps 745 mmHg 94%
    03:00 -1°C° 0.3 mm 5 mps 745 mmHg 97%
    04:00 -1°C° 0.4 mm 5 mps 745 mmHg 97%
    05:00 -1°C° 0.4 mm 4 mps 745 mmHg 98%
    06:00 -1°C° 0.4 mm 4 mps 744 mmHg 98%
    07:00 -1°C° 0.2 mm 5 mps 745 mmHg 98%
    08:00 -1°C° 0.2 mm 5 mps 745 mmHg 98%
    09:00 -2°C° 0.2 mm 6 mps 745 mmHg 98%
    10:00 -2°C° 0.1 mm 6 mps 744 mmHg 99%
    11:00 -1°C° 0.1 mm 5 mps 744 mmHg 99%
    12:00 -1°C° 0.1 mm 5 mps 744 mmHg 99%
    13:00 -1°C° 0.7 mm 5 mps 744 mmHg 99%
    14:00 -1°C° 0.7 mm 5 mps 743 mmHg 99%
    15:00 -1°C° 0.7 mm 5 mps 743 mmHg 98%
    16:00 -1°C° 0.7 mm 4 mps 743 mmHg 98%
    17:00 -1°C° 0.7 mm 4 mps 742 mmHg 98%
    18:00 0°C° 0.7 mm 3 mps 742 mmHg 98%
    19:00 0°C° 0.7 mm 3 mps 742 mmHg 98%
    20:00 0°C° 0.7 mm 3 mps 742 mmHg 98%
    21:00 0°C° 0.7 mm 3 mps 742 mmHg 98%
    22:00 0°C° 0.3 mm 3 mps 742 mmHg 98%
    23:00 0°C° 0.3 mm 3 mps 742 mmHg 98%

    19 February, Wednesday

    Time Temperature Precipitation Wind Pressure Humidity
    00:00 0°C° 0.3 mm 3 mps 741 mmHg 98%
    01:00 0°C° 0 mm 3 mps 741 mmHg 97%
    02:00 -1°C° 0 mm 4 mps 742 mmHg 97%
    03:00 -1°C° 0 mm 4 mps 742 mmHg 97%
    04:00 -1°C° 0 mm 4 mps 742 mmHg 96%
    05:00 -1°C° 0 mm 5 mps 742 mmHg 95%
    06:00 -1°C° 0 mm 5 mps 742 mmHg 94%
    07:00 -1°C° 0 mm 5 mps 742 mmHg 94%
    08:00 -1°C° 0 mm 5 mps 742 mmHg 94%
    09:00 -1°C° 0 mm 5 mps 743 mmHg 94%
    10:00 -1°C° 0 mm 5 mps 743 mmHg 94%
    11:00 -1°C° 0 mm 5 mps 743 mmHg 95%
    12:00 -1°C° 0 mm 5 mps 743 mmHg 96%
    13:00 -1°C° 0 mm 5 mps 743 mmHg 94%
    14:00 -1°C° 0 mm 5 mps 743 mmHg 93%
    15:00 -1°C° 0 mm 5 mps 744 mmHg 91%
    16:00 -1°C° 0 mm 4 mps 744 mmHg 90%
    17:00 -2°C° 0 mm 4 mps 744 mmHg 89%
    18:00 -2°C° 0 mm 4 mps 744 mmHg 89%
    19:00 -2°C° 0 mm 4 mps 744 mmHg 89%
    20:00 -2°C° 0 mm 4 mps 745 mmHg 90%
    21:00 -2°C° 0 mm 3 mps 745 mmHg 90%
    22:00 -2°C° 0 mm 3 mps 745 mmHg 90%
    23:00 -2°C° 0 mm 3 mps 745 mmHg 90%

    20 February, Thursday

    Time Temperature Precipitation Wind Pressure Humidity
    00:00 -4°C° 0 mm 3 mps 745 mmHg 90%
    01:00 -2°C° 0 mm 3 mps 746 mmHg 89%
    02:00 -2°C° 0 mm 3 mps 746 mmHg 89%
    03:00 -2°C° 0 mm 3 mps 746 mmHg 89%
    04:00 -2°C° 0 mm 3 mps 746 mmHg 89%
    05:00 -2°C° 0 mm 3 mps 746 mmHg 90%
    06:00 -2°C° 0 mm 3 mps 746 mmHg 90%
    07:00 -2°C° 0 mm 3 mps 746 mmHg 89%
    08:00 -1°C° 0 mm 3 mps 746 mmHg 88%
    09:00 -2°C° 0 mm 4 mps 746 mmHg 88%
    10:00 -2°C° 0 mm 4 mps 747 mmHg 88%
    11:00 -1°C° 0 mm 4 mps 747 mmHg 88%
    12:00 0°C° 0 mm 3 mps 747 mmHg 89%
    13:00 0°C° 0 mm 3 mps 747 mmHg 90%
    14:00 0°C° 0 mm 3 mps 747 mmHg 91%
    15:00 0°C° 0 mm 3 mps 747 mmHg 92%
    16:00 -1°C° 0 mm 3 mps 747 mmHg 93%
    17:00 -1°C° 0 mm 3 mps 747 mmHg 95%
    18:00 -2°C° 0 mm 3 mps 747 mmHg 96%
    19:00 -2°C° 0 mm 3 mps 747 mmHg 96%
    20:00 -2°C° 0 mm 3 mps 747 mmHg 96%
    21:00 -2°C° 0 mm 3 mps 748 mmHg 96%
    22:00 -2°C° 0 mm 3 mps 748 mmHg 96%
    23:00 -2°C° 0 mm 3 mps 748 mmHg 96%

    21 February, Friday

    Time Temperature Precipitation Wind Pressure Humidity
    00:00 -2°C° 0 mm 3 mps 748 mmHg 96%
    01:00 -2°C° 0 mm 2 mps 748 mmHg 96%
    02:00 -2°C° 0 mm 2 mps 748 mmHg 96%
    03:00 -2°C° 0 mm 2 mps 748 mmHg 97%
    04:00 -2°C° 0 mm 2 mps 748 mmHg 97%
    05:00 -2°C° 0 mm 2 mps 748 mmHg 97%
    06:00 0°C° 0 mm 1 mps 748 mmHg 97%
    07:00 0°C° 0.1 mm 1 mps 748 mmHg 97%
    08:00 0°C° 0.1 mm 1 mps 748 mmHg 97%
    09:00 -1°C° 0.1 mm 2 mps 748 mmHg 97%
    16:00 -1°C° 0 mm 2 mps 748 mmHg 96%
    17:00 -1°C° 0 mm 2 mps 748 mmHg 97%
    18:00 -1°C° 0 mm 2 mps 748 mmHg 98%
    19:00 -1°C° 0.1 mm 2 mps 748 mmHg 98%
    20:00 -1°C° 0.1 mm 2 mps 748 mmHg 98%
    21:00 -2°C° 0.1 mm 2 mps 748 mmHg 97%
    22:00 -2°C° 0.1 mm 2 mps 748 mmHg 97%
    23:00 -2°C° 0.1 mm 2 mps 748 mmHg 97%
    Show more